Location: Batang Balui
(2.7000°N, 113.7833°E)
Time: 04:37:22
(UTC+00:00)

Cosmos 2322 - Pass Details

Date: 08 February 2023
Orbit: 841 x 854 km, 71.0° (Epoch: 26 March)

Event Time Altitude Azimuth Distance (km) Brightness Sun altitude
Rises 21:46:10 0° 341° (NNW) 3,390 6.5 -13.5°
Reaches altitude 10° 21:48:36 10° 340° (NNW) 2,455 5.8 -12.9°
Maximum altitude 21:54:13 75° 255° (WSW) 873 3.6 -11.5°
Drops below altitude 10° 21:59:51 10° 170° (S) 2,456 6.5 -10.2°
Sets 22:02:18 0° 168° (SSE) 3,391 7.2 -9.6°
